Weather History for Romeoville, IL

Change the Weather History Date:

Saturday, February 4, 2012

  Actual Average Record
Temperature  
Mean Temperature 36 °F 25 °F  
Max Temperature 42 °F 32 °F 53 °F (2005)
Min Temperature 30 °F 17 °F -15 °F (1996)
Degree Days  
Heating Degree Days 29 40  
Month to date heating degree days 113 163  
Since 1 July heating degree days 3844  
Cooling Degree Days 0 0  
Month to date cooling degree days 0 0  
Year to date cooling degree days 0 0  
Moisture  
Dew Point 34 °F    
Average Humidity 92    
Maximum Humidity 100    
Minimum Humidity 81    
Precipitation  
Precipitation 0.31 in 0.05 in 0.40 in (1997)
Month to date precipitation 0.48 0.22  
Year to date precipitation 2.30 2.15  
Snow  
Snow 0.00 in 0.30 in 0.00 in (1994)
Month to date snowfall T 1.1  
Since 1 July snowfall 16.3 22.1  
Snow Depth 0.00 in    
Sea Level Pressure  
Sea Level Pressure 30.24 in    
Wind  
Wind Speed 13 mph (ENE)    
Max Wind Speed 17 mph    
Max Gust Speed 18 mph    
Visibility 4 miles    
Events Rain    
T = Trace of Precipitation, MM = Missing Value Source: NWS Daily Summary

Daily Weather History Graph

Daily Weather History Graph

Search for Another Location

Airport:

Trip Planner

Search our weather history database for the weather conditions in past years. The results will help you decide how hot, cold, wet, or windy it might be!

Date:

Astronomy

Feb. 04, 2012 Rise Set
Actual Time 7:01 AM CST 5:11 PM CST
Civil Twilight 6:32 AM CST 5:40 PM CST
Nautical Twilight 5:59 AM CST 6:13 PM CST
Astronomical Twilight 5:26 AM CST 6:46 PM CST
Moon 2:07 PM CST (2/4) 4:28 AM CST (2/4)
Length of Visible Light 11h 08m
Length of Day
10h 09m
Waxing Gibbous, 89% of the Moon is Illuminated
Feb 4
Waxing Gibbous
Feb 7
Full
Feb 14
Last Quarter
Feb 21
New
Feb 29
First Quarter

Hourly Weather History & Observations

Time (CST) Temp. Windchill Dew Point Humidity Pressure Visibility Wind Dir Wind Speed Gust Speed Precip Events Conditions
12:15 AM 33.3 °F 22.8 °F 32.9 °F 99% 30.32 in 2.5 mi ENE 16.1 mph - 0.02 in Rain Rain
12:35 AM 33.4 °F 23.5 °F 33.1 °F 99% 30.32 in 2.5 mi ENE 15.0 mph - 0.05 in Rain Rain
12:55 AM 33.8 °F 23.5 °F 33.3 °F 98% 30.31 in 2.5 mi ENE 16.1 mph - 0.08 in Rain Light Rain
1:15 AM 33.8 °F 23.2 °F 33.3 °F 98% 30.31 in 2.0 mi NE 17.3 mph - 0.02 in Rain Light Rain
1:35 AM 33.8 °F 25.3 °F 33.3 °F 98% 30.32 in 2.5 mi ENE 11.5 mph - 0.04 in Rain Light Rain
1:55 AM 33.8 °F 25.3 °F 33.3 °F 98% 30.32 in 2.0 mi ENE 11.5 mph - 0.06 in Rain Rain
2:15 AM 33.8 °F 25.3 °F 33.3 °F 98% 30.33 in 2.0 mi ENE 11.5 mph - 0.02 in Rain Light Rain
2:35 AM 33.8 °F 25.8 °F 33.4 °F 99% 30.32 in 2.0 mi ENE 10.4 mph - 0.04 in Rain Light Rain
2:55 AM 33.4 °F 25.4 °F 33.3 °F 99% 30.31 in 2.0 mi ENE 10.4 mph - 0.05 in Rain Light Rain
3:15 AM 33.4 °F 25.4 °F 33.3 °F 99% 30.31 in 2.0 mi East 10.4 mph - N/A   Drizzle
3:35 AM 33.4 °F 25.9 °F 33.3 °F 99% 30.31 in 2.0 mi ENE 9.2 mph - N/A   Light Drizzle
3:55 AM 33.4 °F 24.3 °F 33.3 °F 99% 30.29 in 2.0 mi East 12.7 mph - N/A   Overcast
4:15 AM 33.4 °F 24.8 °F 33.1 °F 99% 30.29 in 2.0 mi East 11.5 mph - N/A   Overcast
4:35 AM 33.3 °F 25.7 °F 33.1 °F 99% 30.28 in 2.0 mi East 9.2 mph - N/A   Overcast
4:55 AM 33.3 °F 25.1 °F 33.1 °F 99% 30.28 in 2.0 mi ENE 10.4 mph - N/A   Overcast
5:15 AM 33.3 °F 25.1 °F 33.1 °F 99% 30.28 in 2.0 mi ENE 10.4 mph - N/A   Overcast
5:35 AM 33.3 °F 25.1 °F 33.1 °F 99% 30.27 in 1.8 mi ENE 10.4 mph - N/A   Overcast
5:55 AM 33.4 °F 25.4 °F 33.3 °F 99% 30.27 in 1.8 mi ENE 10.4 mph - N/A   Overcast
6:15 AM 33.8 °F 24.8 °F 33.4 °F 99% 30.27 in 2.0 mi ENE 12.7 mph - N/A   Overcast
6:35 AM 33.8 °F 23.5 °F 33.6 °F 99% 30.26 in 2.0 mi ENE 16.1 mph - N/A   Overcast
6:55 AM 34.2 °F 24.8 °F 33.8 °F 99% 30.26 in 2.5 mi ENE 13.8 mph - N/A   Overcast
7:15 AM 34.2 °F 26.8 °F 33.6 °F 98% 30.26 in 2.5 mi East 9.2 mph - N/A   Overcast
7:35 AM 34.3 °F 25.5 °F 33.4 °F 97% 30.26 in 1.8 mi East 12.7 mph - N/A   Overcast
7:55 AM 34.7 °F 26.9 °F 33.6 °F 96% 30.25 in 2.0 mi ENE 10.4 mph - N/A   Overcast
8:15 AM 34.7 °F 25.9 °F 33.8 °F 97% 30.24 in 2.0 mi ENE 12.7 mph - N/A   Overcast
8:35 AM 35.1 °F 25.9 °F 33.8 °F 95% 30.25 in 2.0 mi ENE 13.8 mph - N/A   Overcast
8:55 AM 35.6 °F 26.6 °F 33.8 °F 93% 30.25 in 2.5 mi ENE 13.8 mph - N/A   Overcast
9:15 AM 35.8 °F 27.3 °F 33.8 °F 92% 30.24 in 2.5 mi East 12.7 mph - N/A   Overcast
9:35 AM 36.1 °F 26.5 °F 34.0 °F 92% 30.24 in 2.5 mi ENE 16.1 mph - N/A   Overcast
9:55 AM 36.5 °F 27.0 °F 34.2 °F 91% 30.24 in 3.0 mi ENE 16.1 mph - N/A   Overcast
10:15 AM 37.4 °F 29.8 °F 34.7 °F 90% 30.24 in 3.0 mi ENE 11.5 mph - N/A   Overcast
10:35 AM 37.4 °F 29.3 °F 33.8 °F 87% 30.24 in 3.0 mi ENE 12.7 mph - N/A   Overcast
10:55 AM 38.5 °F 30.7 °F 35.4 °F 89% 30.24 in 4.0 mi ENE 12.7 mph - N/A   Overcast
11:15 AM 38.1 °F 29.8 °F 34.9 °F 88% 30.24 in 4.0 mi ENE 13.8 mph - N/A   Overcast
11:35 AM 38.8 °F 31.2 °F 34.9 °F 86% 30.23 in 5.0 mi ENE 12.7 mph 16.1 mph N/A   Overcast
11:55 AM 39.0 °F 32.8 °F 34.9 °F 85% 30.23 in 5.0 mi NE 9.2 mph - N/A   Overcast
12:15 PM 39.2 °F 33.0 °F 34.9 °F 84% 30.21 in 5.0 mi ENE 9.2 mph - N/A   Overcast
12:35 PM 39.9 °F 32.9 °F 35.2 °F 83% 30.19 in 5.0 mi NE 11.5 mph 16.1 mph N/A   Haze
12:55 PM 40.8 °F 34.1 °F 35.6 °F 82% 30.19 in 5.0 mi ENE 11.5 mph 16.1 mph N/A   Haze
1:15 PM 39.4 °F 31.4 °F 34.7 °F 83% 30.18 in 5.0 mi ENE 13.8 mph - N/A   Mostly Cloudy
1:35 PM 39.4 °F 31.8 °F 34.7 °F 83% 30.17 in 5.0 mi ENE 12.7 mph - N/A   Mostly Cloudy
1:55 PM 39.6 °F 31.3 °F 34.3 °F 82% 30.18 in 5.0 mi ENE 15.0 mph - N/A   Haze
2:15 PM 39.4 °F 32.3 °F 34.3 °F 82% 30.17 in 5.0 mi NE 11.5 mph - N/A   Haze
2:35 PM 39.2 °F 30.8 °F 34.3 °F 83% 30.17 in 5.0 mi NE 15.0 mph - N/A   Haze
2:55 PM 39.2 °F 30.5 °F 34.2 °F 82% 30.17 in 5.0 mi ENE 16.1 mph - N/A   Haze
3:15 PM 38.8 °F 30.4 °F 33.8 °F 82% 30.17 in 5.0 mi ENE 15.0 mph - N/A   Haze
3:35 PM 38.3 °F 29.3 °F 33.6 °F 83% 30.17 in 5.0 mi ENE 16.1 mph - N/A   Overcast
3:55 PM 37.9 °F 30.0 °F 33.3 °F 83% 30.17 in 7.0 mi ENE 12.7 mph - N/A   Overcast
4:15 PM 37.6 °F 28.8 °F 33.3 °F 84% 30.16 in 7.0 mi NE 15.0 mph 18.4 mph N/A   Overcast
4:35 PM 37.4 °F 28.9 °F 32.9 °F 84% 30.17 in 7.0 mi ENE 13.8 mph 17.3 mph N/A   Overcast
4:55 PM 37.0 °F 28.5 °F 32.7 °F 84% 30.17 in 7.0 mi ENE 13.8 mph - N/A   Overcast
5:15 PM 37.0 °F 28.9 °F 32.9 °F 85% 30.17 in 7.0 mi ENE 12.7 mph - N/A   Overcast
5:35 PM 36.9 °F 29.1 °F 32.9 °F 86% 30.17 in 7.0 mi ENE 11.5 mph - N/A   Overcast
5:55 PM 36.5 °F 29.7 °F 32.5 °F 86% 30.18 in 7.0 mi ENE 9.2 mph - N/A   Overcast
6:15 PM 36.5 °F 29.7 °F 32.4 °F 85% 30.18 in 7.0 mi NE 9.2 mph - N/A   Overcast
6:35 PM 36.0 °F 28.5 °F 32.0 °F 86% 30.18 in 7.0 mi NNE 10.4 mph - N/A   Overcast
6:55 PM 35.4 °F 29.7 °F 32.0 °F 87% 30.19 in 7.0 mi NNE 6.9 mph - N/A   Overcast
7:15 PM 34.9 °F 28.3 °F 32.0 °F 89% 30.19 in 7.0 mi NNE 8.1 mph - N/A   Overcast
7:35 PM 34.7 °F 27.5 °F 32.0 °F 90% 30.18 in 7.0 mi NNE 9.2 mph - N/A   Overcast
7:55 PM 34.7 °F 27.5 °F 32.0 °F 90% 30.19 in 7.0 mi NE 9.2 mph - N/A   Overcast
8:15 PM 34.7 °F 27.5 °F 32.0 °F 90% 30.19 in 7.0 mi NNE 9.2 mph - N/A   Overcast
8:35 PM 34.7 °F 28.8 °F 32.0 °F 90% 30.19 in 7.0 mi NNE 6.9 mph - N/A   Overcast
8:55 PM 34.7 °F 28.8 °F 32.0 °F 90% 30.19 in 7.0 mi NNE 6.9 mph - N/A   Overcast
9:15 PM 34.7 °F 28.8 °F 32.0 °F 90% 30.19 in 7.0 mi NNE 6.9 mph - N/A   Overcast
9:35 PM 34.7 °F 28.8 °F 32.0 °F 90% 30.18 in 7.0 mi NNE 6.9 mph - N/A   Overcast
9:55 PM 34.2 °F 28.2 °F 32.0 °F 92% 30.17 in 7.0 mi NNE 6.9 mph - N/A   Overcast
10:15 PM 33.3 °F 27.9 °F 31.5 °F 93% 30.18 in 7.0 mi NE 5.8 mph - N/A   Overcast
10:35 PM 32.4 °F 26.9 °F 31.1 °F 95% 30.19 in 7.0 mi NNE 5.8 mph - N/A   Scattered Clouds
10:55 PM 32.2 °F - 31.1 °F 96% 30.19 in 7.0 mi Calm Calm - N/A   Clear
11:15 PM 31.8 °F - 30.0 °F 93% 30.19 in 7.0 mi Calm Calm - N/A   Clear
11:35 PM 31.8 °F - 30.0 °F 93% 30.19 in 7.0 mi Calm Calm - N/A   Clear
11:55 PM 31.5 °F - 30.0 °F 94% 30.19 in 7.0 mi Calm Calm - N/A   Clear